Regional Weather Roundup
Issued by NWS

Home | Current Version | Previous Version | Text Only | Print | Product List | Glossary Off
Versions: 1 2 3 4 5 6 7 8 9 10 11 12 13 14 15 16 17 18 19 20 21 22 23 24 25 26 27 28 29 30 31 32 33 34 35 36 37 38 39 40 41 42 43 44 45 46 47 48 49 50

000
ASUS43 KLMK 080602
RWRKY
KENTUCKY REGIONAL WEATHER ROUNDUP
NATIONAL WEATHER SERVICE LOUISVILLE KY
100 AM EST MON FEB 08 2016

NOTE "FAIR" INDICATES FEW OR NO CLOUDS BELOW 12,000 FEET
WITH NO SIGNIFICANT WEATHER AND/OR OBSTRUCTIONS TO VISIBILITY.

KYZ001>023-026-027-061>063-070>075-080700-
WESTERN AND SOUTH CENTRAL KENTUCKY

CITY           SKY/WX    TMP DP  RH WIND       PRES   REMARKS
PADUCAH        CLOUDY    46  28  49 W12G17    29.86F
HENDERSON      CLOUDY    41  34  75 W5        29.84F
OWENSBORO      CLOUDY    45  34  65 W14       29.84S
HOPKINSVILLE   MOCLDY    47  32  56 W14       29.86R
BOWLING GREEN  CLOUDY    48  28  46 W9        29.83F
GLASGOW        NOT AVBL
$$

KYZ024-025-028>034-038-045-046-053-080700-
NORTH CENTRAL KENTUCKY

CITY           SKY/WX    TMP DP  RH WIND       PRES   REMARKS
LOUISVILLE/SDF CLOUDY    47  27  45 W9        29.78F
LOUISVILLE/LOU CLOUDY    48  27  44 W8        29.78F
FORT KNOX      LGT RAIN  46  32  59 NW13G20   29.77F
$$

KYZ035>037-039>044-047>052-055>060-089>105-080700-
NORTHEAST KENTUCKY

CITY           SKY/WX    TMP DP  RH WIND       PRES   REMARKS
LEXINGTON      CLOUDY    43  23  45 S12       29.78F
COVINGTON      CLOUDY    45  23  42 SW5       29.74F
FRANKFORT      CLOUDY    44  23  43 SW9       29.76F
$$

KYZ054-064>069-076>088-106>120-080700-
SOUTHEAST KENTUCKY

CITY           SKY/WX    TMP DP  RH WIND       PRES   REMARKS
JACKSON        PTCLDY    41  20  43 S3        29.82F
LONDON         PTCLDY    40  21  46 S6        29.83F
SOMERSET       NOT AVBL
MIDDLESBORO    NOT AVBL
MONTICELLO     CLOUDY    44  24  45 SW12      29.85F
$$




USA.gov is the U.S. government's official web portal to all federal, state and local government web resources and services.